Time,TemperatureF,DewpointF,PressureIn,WindDirection,WindDirectionDegrees,WindSpeedMPH,WindSpeedGustMPH,Humidity,HourlyPrecipIn,Conditions,Clouds,dailyrainin,SoftwareType,DateUTC
2013-05-15 00:03:00,69.0,58.0,29.70,South,190,0.0,2.0,67,0.00,,,0.00,,2013-05-15 04:03:00,
2013-05-15 00:12:00,69.0,58.0,29.70,South,190,0.0,2.0,67,0.00,,,0.00,,2013-05-15 04:12:00,
2013-05-15 00:24:00,69.0,58.0,29.70,South,190,0.0,2.0,67,0.00,,,0.00,,2013-05-15 04:24:00,
2013-05-15 00:33:00,69.0,58.0,29.71,SW,217,0.0,0.0,67,0.00,,,0.00,,2013-05-15 04:33:00,
2013-05-15 00:43:00,69.0,58.0,29.71,SW,217,0.0,0.0,67,0.00,,,0.00,,2013-05-15 04:43:00,
2013-05-15 00:52:00,69.0,57.0,29.71,SSW,194,0.0,0.0,66,0.00,,,0.00,,2013-05-15 04:52:00,
2013-05-15 01:02:00,69.0,57.0,29.71,SSW,197,0.0,0.0,66,0.00,,,0.00,,2013-05-15 05:02:00,
2013-05-15 01:12:00,69.0,57.0,29.71,SSW,197,0.0,0.0,66,0.00,,,0.00,,2013-05-15 05:12:00,
2013-05-15 01:22:00,69.0,58.0,29.72,SSW,198,0.0,0.0,67,0.00,,,0.00,,2013-05-15 05:22:00,
2013-05-15 01:32:00,69.0,58.0,29.71,SSW,198,0.0,0.0,68,0.00,,,0.00,,2013-05-15 05:32:00,
2013-05-15 01:42:00,69.0,58.0,29.71,SSW,198,0.0,0.0,68,0.00,,,0.00,,2013-05-15 05:42:00,
2013-05-15 01:52:00,68.0,58.0,29.70,West,261,0.0,0.0,70,0.00,,,0.00,,2013-05-15 05:52:00,
2013-05-15 02:02:00,68.0,57.0,29.69,SSW,207,0.0,1.0,69,0.00,,,0.00,,2013-05-15 06:02:00,
2013-05-15 02:11:00,68.0,57.0,29.69,SSW,207,0.0,1.0,69,0.00,,,0.00,,2013-05-15 06:11:00,
2013-05-15 02:21:00,68.0,58.0,29.69,SSW,195,0.0,0.0,70,0.00,,,0.00,,2013-05-15 06:21:00,
2013-05-15 02:32:00,69.0,59.0,29.68,SSE,151,1.0,2.0,71,0.00,,,0.00,,2013-05-15 06:32:00,
2013-05-15 02:42:00,69.0,59.0,29.68,SSE,151,1.0,2.0,71,0.00,,,0.00,,2013-05-15 06:42:00,
2013-05-15 02:52:00,69.0,59.0,29.67,SE,138,0.0,2.0,70,0.00,,,0.00,,2013-05-15 06:52:00,
2013-05-15 03:01:00,69.0,59.0,29.67,SE,136,1.0,2.0,70,0.00,,,0.00,,2013-05-15 07:01:00,
2013-05-15 03:11:00,69.0,59.0,29.67,SE,136,1.0,2.0,70,0.00,,,0.00,,2013-05-15 07:11:00,
2013-05-15 03:22:00,70.0,60.0,29.67,SSE,155,0.0,1.0,70,0.00,,,0.00,,2013-05-15 07:22:00,
2013-05-15 03:32:00,70.0,60.0,29.65,SE,145,1.0,3.0,70,0.00,,,0.00,,2013-05-15 07:32:00,
2013-05-15 03:42:00,70.0,60.0,29.65,SE,145,1.0,3.0,70,0.00,,,0.00,,2013-05-15 07:42:00,
2013-05-15 03:52:00,69.0,59.0,29.64,SSE,149,1.0,2.0,71,0.00,,,0.00,,2013-05-15 07:52:00,
2013-05-15 04:02:00,69.0,59.0,29.63,SE,143,1.0,3.0,71,0.00,,,0.00,,2013-05-15 08:02:00,
2013-05-15 04:12:00,69.0,59.0,29.63,SE,143,1.0,3.0,71,0.00,,,0.00,,2013-05-15 08:12:00,
2013-05-15 04:21:00,69.0,59.0,29.64,SSE,148,1.0,2.0,71,0.00,,,0.00,,2013-05-15 08:21:00,
2013-05-15 04:32:00,69.0,59.0,29.64,SSE,148,1.0,2.0,71,0.00,,,0.00,,2013-05-15 08:32:00,
2013-05-15 04:42:00,69.0,59.0,29.64,SSE,148,1.0,2.0,71,0.00,,,0.00,,2013-05-15 08:42:00,
2013-05-15 04:53:00,69.0,59.0,29.62,SSE,160,1.0,5.0,70,0.00,,,0.00,,2013-05-15 08:53:00,
2013-05-15 05:01:00,70.0,59.0,29.61,SSW,211,2.0,5.0,69,0.00,,,0.00,,2013-05-15 09:01:00,
2013-05-15 05:12:00,70.0,59.0,29.61,SSW,211,2.0,5.0,69,0.00,,,0.00,,2013-05-15 09:12:00,
2013-05-15 05:22:00,70.0,59.0,29.61,SSE,148,2.0,10.0,68,0.00,,,0.00,,2013-05-15 09:22:00,
2013-05-15 05:33:00,70.0,59.0,29.60,SSW,192,2.0,5.0,68,0.00,,,0.00,,2013-05-15 09:33:00,
2013-05-15 05:42:00,70.0,59.0,29.60,SSW,192,2.0,5.0,68,0.00,,,0.00,,2013-05-15 09:42:00,
2013-05-15 05:53:00,70.0,59.0,29.60,SE,145,2.0,6.0,67,0.00,,,0.00,,2013-05-15 09:53:00,
2013-05-15 06:02:00,70.0,58.0,29.60,SSE,156,1.0,7.0,66,0.00,,,0.00,,2013-05-15 10:02:00,
2013-05-15 06:13:00,70.0,58.0,29.60,SSE,156,1.0,7.0,66,0.00,,,0.00,,2013-05-15 10:13:00,
2013-05-15 06:22:00,71.0,59.0,29.60,SE,135,2.0,5.0,65,0.00,,,0.00,,2013-05-15 10:22:00,
2013-05-15 06:32:00,71.0,58.0,29.60,SSW,210,1.0,5.0,64,0.00,,,0.00,,2013-05-15 10:32:00,
2013-05-15 06:42:00,71.0,58.0,29.60,SSW,210,1.0,5.0,64,0.00,,,0.00,,2013-05-15 10:42:00,
2013-05-15 06:52:00,70.0,57.0,29.60,SSE,158,3.0,8.0,64,0.00,,,0.00,,2013-05-15 10:52:00,
2013-05-15 07:19:00,70.0,57.0,29.61,SSE,164,3.0,9.0,64,0.00,,,0.00,,2013-05-15 11:19:00,
2013-05-15 07:27:00,70.0,58.0,29.61,SE,146,2.0,5.0,65,0.00,,,0.00,,2013-05-15 11:27:00,
2013-05-15 07:38:00,70.0,57.0,29.61,ESE,121,2.0,6.0,64,0.00,,,0.00,,2013-05-15 11:38:00,
2013-05-15 07:48:00,70.0,57.0,29.61,ESE,121,2.0,6.0,64,0.00,,,0.00,,2013-05-15 11:48:00,
2013-05-15 07:56:00,70.0,57.0,29.61,SSE,166,1.0,5.0,64,0.00,,,0.00,,2013-05-15 11:56:00,
2013-05-15 08:10:00,71.0,58.0,29.62,SSW,197,3.0,10.0,63,0.00,,,0.00,,2013-05-15 12:10:00,
2013-05-15 08:16:00,71.0,58.0,29.62,SSW,197,3.0,10.0,63,0.00,,,0.00,,2013-05-15 12:16:00,
2013-05-15 08:29:00,71.0,57.0,29.62,West,276,3.0,11.0,61,0.00,,,0.00,,2013-05-15 12:29:00,
2013-05-15 08:37:00,72.0,56.0,29.63,SW,225,5.0,11.0,57,0.00,,,0.00,,2013-05-15 12:37:00,
2013-05-15 08:48:00,72.0,56.0,29.63,SW,225,5.0,11.0,57,0.00,,,0.00,,2013-05-15 12:48:00,
2013-05-15 09:11:00,74.0,58.0,29.63,SSW,195,2.0,14.0,57,0.00,,,0.00,,2013-05-15 13:11:00,
2013-05-15 09:19:00,74.0,58.0,29.63,SSW,195,2.0,14.0,57,0.00,,,0.00,,2013-05-15 13:19:00,
2013-05-15 09:27:00,75.0,58.0,29.63,WSW,257,3.0,11.0,56,0.00,,,0.00,,2013-05-15 13:27:00,
2013-05-15 09:36:00,75.0,57.0,29.64,SSW,200,5.0,13.0,54,0.00,,,0.00,,2013-05-15 13:36:00,
2013-05-15 09:47:00,75.0,57.0,29.64,SSW,200,5.0,13.0,54,0.00,,,0.00,,2013-05-15 13:47:00,
2013-05-15 09:57:00,76.0,58.0,29.64,South,183,5.0,14.0,53,0.00,,,0.00,,2013-05-15 13:57:00,
2013-05-15 10:08:00,77.0,57.0,29.64,SW,236,4.0,12.0,51,0.00,,,0.00,,2013-05-15 14:08:00,
2013-05-15 10:14:00,77.0,57.0,29.64,SW,236,4.0,12.0,51,0.00,,,0.00,,2013-05-15 14:14:00,
2013-05-15 10:27:00,78.0,57.0,29.65,SSE,156,4.0,13.0,49,0.00,,,0.00,,2013-05-15 14:27:00,
2013-05-15 10:38:00,79.0,56.0,29.65,WSW,250,5.0,12.0,45,0.00,,,0.00,,2013-05-15 14:38:00,
2013-05-15 10:48:00,79.0,56.0,29.65,WSW,250,5.0,12.0,45,0.00,,,0.00,,2013-05-15 14:48:00,
2013-05-15 10:54:00,80.0,56.0,29.66,SW,236,5.0,13.0,44,0.00,,,0.00,,2013-05-15 14:54:00,
2013-05-15 11:09:00,80.0,55.0,29.65,WNW,301,4.0,13.0,43,0.00,,,0.00,,2013-05-15 15:09:00,
2013-05-15 11:16:00,80.0,55.0,29.65,WNW,301,4.0,13.0,43,0.00,,,0.00,,2013-05-15 15:16:00,
2013-05-15 11:29:00,81.0,56.0,29.65,SSW,198,5.0,11.0,42,0.00,,,0.00,,2013-05-15 15:29:00,
2013-05-15 11:38:00,82.0,57.0,29.66,West,278,3.0,13.0,42,0.00,,,0.00,,2013-05-15 15:38:00,
2013-05-15 11:48:00,82.0,57.0,29.66,West,278,3.0,13.0,42,0.00,,,0.00,,2013-05-15 15:48:00,
2013-05-15 11:57:00,82.0,55.0,29.66,NW,304,4.0,12.0,39,0.00,,,0.00,,2013-05-15 15:57:00,
2013-05-15 12:10:00,83.0,54.0,29.67,WNW,293,3.0,9.0,37,0.00,,,0.00,,2013-05-15 16:10:00,
2013-05-15 12:24:00,83.0,54.0,29.67,WNW,293,3.0,9.0,37,0.00,,,0.00,,2013-05-15 16:24:00,
2013-05-15 12:38:00,83.0,52.0,29.67,WNW,297,6.0,13.0,34,0.00,,,0.00,,2013-05-15 16:38:00,
2013-05-15 12:49:00,83.0,52.0,29.67,WNW,297,6.0,13.0,34,0.00,,,0.00,,2013-05-15 16:49:00,
2013-05-15 12:54:00,83.0,52.0,29.67,NW,304,4.0,12.0,35,0.00,,,0.00,,2013-05-15 16:54:00,
2013-05-15 13:11:00,84.0,52.0,29.68,NW,308,6.0,11.0,33,0.00,,,0.00,,2013-05-15 17:11:00,
2013-05-15 13:21:00,84.0,52.0,29.68,NW,308,6.0,11.0,33,0.00,,,0.00,,2013-05-15 17:21:00,
2013-05-15 13:28:00,84.0,50.0,29.69,NW,305,5.0,13.0,31,0.00,,,0.00,,2013-05-15 17:28:00,
2013-05-15 13:38:00,85.0,48.0,29.70,NW,308,8.0,17.0,28,0.00,,,0.00,,2013-05-15 17:38:00,
2013-05-15 13:57:00,85.0,48.0,29.70,WNW,300,6.0,16.0,28,0.00,,,0.00,,2013-05-15 17:57:00,
2013-05-15 14:07:00,84.0,47.0,29.70,WNW,290,5.0,15.0,28,0.00,,,0.00,,2013-05-15 18:07:00,
2013-05-15 14:16:00,84.0,47.0,29.70,WNW,290,5.0,15.0,28,0.00,,,0.00,,2013-05-15 18:16:00,
2013-05-15 14:28:00,85.0,48.0,29.70,West,271,4.0,11.0,28,0.00,,,0.00,,2013-05-15 18:28:00,
2013-05-15 14:38:00,85.0,46.0,29.70,West,281,5.0,13.0,26,0.00,,,0.00,,2013-05-15 18:38:00,
2013-05-15 14:47:00,85.0,46.0,29.70,West,281,5.0,13.0,26,0.00,,,0.00,,2013-05-15 18:47:00,
2013-05-15 14:55:00,85.0,44.0,29.70,WNW,293,6.0,15.0,24,0.00,,,0.00,,2013-05-15 18:55:00,
2013-05-15 15:09:00,85.0,44.0,29.70,NW,314,7.0,14.0,24,0.00,,,0.00,,2013-05-15 19:09:00,
2013-05-15 15:16:00,85.0,44.0,29.70,NW,314,7.0,14.0,24,0.00,,,0.00,,2013-05-15 19:16:00,
2013-05-15 15:30:00,86.0,45.0,29.70,West,277,7.0,11.0,24,0.00,,,0.00,,2013-05-15 19:30:00,
2013-05-15 15:38:00,86.0,45.0,29.70,WNW,286,7.0,10.0,24,0.00,,,0.00,,2013-05-15 19:38:00,
2013-05-15 15:47:00,86.0,45.0,29.70,WNW,286,7.0,10.0,24,0.00,,,0.00,,2013-05-15 19:47:00,
2013-05-15 15:54:00,86.0,44.0,29.69,West,276,5.0,10.0,23,0.00,,,0.00,,2013-05-15 19:54:00,
2013-05-15 16:09:00,86.0,41.0,29.69,West,259,7.0,12.0,21,0.00,,,0.00,,2013-05-15 20:09:00,
2013-05-15 16:20:00,86.0,41.0,29.69,West,259,7.0,12.0,21,0.00,,,0.00,,2013-05-15 20:20:00,
2013-05-15 16:30:00,86.0,45.0,29.69,West,262,5.0,12.0,24,0.00,,,0.00,,2013-05-15 20:30:00,
2013-05-15 16:40:00,86.0,43.0,29.69,NW,308,4.0,11.0,22,0.00,,,0.00,,2013-05-15 20:40:00,
2013-05-15 16:47:00,86.0,43.0,29.69,NW,308,4.0,11.0,22,0.00,,,0.00,,2013-05-15 20:47:00,
2013-05-15 16:53:00,85.0,43.0,29.70,West,276,5.0,15.0,23,0.00,,,0.00,,2013-05-15 20:53:00,
2013-05-15 17:09:00,86.0,45.0,29.70,SW,225,5.0,12.0,24,0.00,,,0.00,,2013-05-15 21:09:00,
2013-05-15 17:20:00,86.0,45.0,29.70,SW,225,5.0,12.0,24,0.00,,,0.00,,2013-05-15 21:20:00,
2013-05-15 17:28:00,85.0,45.0,29.70,WSW,240,5.0,12.0,25,0.00,,,0.00,,2013-05-15 21:28:00,
2013-05-15 17:41:00,85.0,44.0,29.70,WNW,288,4.0,10.0,24,0.00,,,0.00,,2013-05-15 21:41:00,
2013-05-15 17:51:00,85.0,44.0,29.70,WNW,288,4.0,10.0,24,0.00,,,0.00,,2013-05-15 21:51:00,
2013-05-15 18:11:00,85.0,48.0,29.70,WNW,302,2.0,10.0,28,0.00,,,0.00,,2013-05-15 22:11:00,
2013-05-15 18:19:00,85.0,48.0,29.70,WNW,302,2.0,10.0,28,0.00,,,0.00,,2013-05-15 22:19:00,
2013-05-15 18:30:00,84.0,46.0,29.70,WSW,243,4.0,8.0,27,0.00,,,0.00,,2013-05-15 22:30:00,
2013-05-15 18:40:00,83.0,46.0,29.71,South,187,3.0,14.0,27,0.00,,,0.00,,2013-05-15 22:40:00,
2013-05-15 18:50:00,83.0,46.0,29.71,South,187,3.0,14.0,27,0.00,,,0.00,,2013-05-15 22:50:00,
2013-05-15 19:08:00,82.0,46.0,29.71,WNW,301,3.0,8.0,28,0.00,,,0.00,,2013-05-15 23:08:00,
2013-05-15 19:29:00,81.0,44.0,29.71,WNW,300,3.0,9.0,27,0.00,,,0.00,,2013-05-15 23:29:00,
2013-05-15 19:39:00,81.0,45.0,29.71,NW,308,4.0,8.0,28,0.00,,,0.00,,2013-05-15 23:39:00,
2013-05-15 19:50:00,81.0,45.0,29.71,NW,308,4.0,8.0,28,0.00,,,0.00,,2013-05-15 23:50:00,
2013-05-15 19:55:00,80.0,45.0,29.71,NW,305,2.0,6.0,29,0.00,,,0.00,,2013-05-15 23:55:00,
2013-05-15 20:08:00,80.0,45.0,29.71,WNW,302,3.0,6.0,29,0.00,,,0.00,,2013-05-16 00:08:00,
2013-05-15 20:17:00,80.0,45.0,29.71,WNW,302,3.0,6.0,29,0.00,,,0.00,,2013-05-16 00:17:00,
2013-05-15 20:27:00,78.0,45.0,29.71,NW,323,2.0,5.0,31,0.00,,,0.00,,2013-05-16 00:27:00,
2013-05-15 20:36:00,77.0,45.0,29.72,WNW,286,1.0,5.0,32,0.00,,,0.00,,2013-05-16 00:36:00,
2013-05-15 20:50:00,75.0,45.0,29.72,WNW,293,1.0,4.0,34,0.00,,,0.00,,2013-05-16 00:50:00,
2013-05-15 21:08:00,74.0,46.0,29.72,West,275,0.0,3.0,37,0.00,,,0.00,,2013-05-16 01:08:00,
2013-05-15 21:18:00,74.0,46.0,29.72,West,275,0.0,3.0,37,0.00,,,0.00,,2013-05-16 01:18:00,
2013-05-15 21:30:00,71.0,45.0,29.73,West,263,0.0,1.0,39,0.00,,,0.00,,2013-05-16 01:30:00,
2013-05-15 21:56:00,66.0,46.0,29.74,NNW,330,0.0,2.0,48,0.00,,,0.00,,2013-05-16 01:56:00,
2013-05-15 22:08:00,67.0,46.0,29.74,NW,314,0.0,0.0,47,0.00,,,0.00,,2013-05-16 02:08:00,
2013-05-15 22:28:00,67.0,46.0,29.75,NW,312,0.0,0.0,46,0.00,,,0.00,,2013-05-16 02:28:00,
2013-05-15 22:39:00,66.0,46.0,29.75,NW,311,0.0,0.0,48,0.00,,,0.00,,2013-05-16 02:39:00,
2013-05-15 22:46:00,66.0,46.0,29.75,NW,311,0.0,0.0,48,0.00,,,0.00,,2013-05-16 02:46:00,
2013-05-15 22:54:00,66.0,46.0,29.75,NW,311,0.0,0.0,48,0.00,,,0.00,,2013-05-16 02:54:00,
2013-05-15 23:07:00,67.0,47.0,29.75,SSW,211,0.0,0.0,48,0.00,,,0.00,,2013-05-16 03:07:00,
2013-05-15 23:16:00,67.0,47.0,29.75,SSW,211,0.0,0.0,48,0.00,,,0.00,,2013-05-16 03:16:00,
2013-05-15 23:26:00,66.0,48.0,29.75,SSW,211,0.0,0.0,52,0.00,,,0.00,,2013-05-16 03:26:00,
2013-05-15 23:39:00,66.0,48.0,29.74,SSW,211,0.0,0.0,53,0.00,,,0.00,,2013-05-16 03:39:00,
2013-05-15 23:46:00,66.0,48.0,29.74,SSW,211,0.0,0.0,53,0.00,,,0.00,,2013-05-16 03:46:00,
2013-05-15 23:55:00,65.0,48.0,29.74,SSW,211,0.0,0.0,54,0.00,,,0.00,,2013-05-16 03:55:00,